Time,TemperatureF,DewpointF,PressureIn,WindDirection,WindDirectionDegrees,WindSpeedMPH,WindSpeedGustMPH,Humidity,HourlyPrecipIn,Conditions,Clouds,dailyrainin,SoftwareType,DateUTC
2013-02-27 09:25:00,44.8,40.0,30.32,East,84,0.0,0.0,83,0.00,,,0.00,Wunderground v.1.15,2013-02-27 17:25:00,
2013-02-27 09:30:00,45.2,41.3,30.32,East,81,0.0,0.0,86,0.00,,,0.00,Wunderground v.1.15,2013-02-27 17:30:00,
2013-02-27 09:35:00,45.4,40.5,30.31,SSE,164,0.0,0.0,83,0.00,,,0.00,Wunderground v.1.15,2013-02-27 17:35:00,
2013-02-27 09:40:00,45.6,41.7,30.31,SSW,206,0.0,0.0,86,0.00,,,0.00,Wunderground v.1.15,2013-02-27 17:40:00,
2013-02-27 09:45:00,45.7,41.4,30.31,SSW,205,0.0,1.0,85,0.00,,,0.00,Wunderground v.1.15,2013-02-27 17:45:00,
2013-02-27 09:55:00,45.9,41.0,30.31,SSW,206,0.0,0.0,83,0.00,,,0.00,Wunderground v.1.15,2013-02-27 17:55:00,
2013-02-27 10:00:00,46.2,41.0,30.31,ENE,57,0.0,1.0,82,0.00,,,0.00,Wunderground v.1.15,2013-02-27 18:00:00,
2013-02-27 10:05:00,46.3,42.0,30.31,NE,55,0.0,4.0,85,0.00,,,0.00,Wunderground v.1.15,2013-02-27 18:05:00,
2013-02-27 10:15:00,46.4,41.2,30.30,South,185,0.0,4.0,82,0.00,,,0.00,Wunderground v.1.15,2013-02-27 18:15:00,
2013-02-27 10:20:00,46.9,41.4,30.30,SSE,152,0.0,4.0,81,0.00,,,0.00,Wunderground v.1.15,2013-02-27 18:20:00,
2013-02-27 10:25:00,47.3,41.1,30.31,South,177,0.0,4.0,79,0.00,,,0.00,Wunderground v.1.15,2013-02-27 18:25:00,
2013-02-27 10:35:00,48.1,40.9,30.30,SSE,147,0.0,4.0,76,0.00,,,0.00,Wunderground v.1.15,2013-02-27 18:35:00,
2013-02-27 10:40:00,48.6,41.4,30.31,ENE,58,0.0,4.0,76,0.00,,,0.00,Wunderground v.1.15,2013-02-27 18:40:00,
2013-02-27 10:45:00,49.0,43.4,30.31,NNE,30,0.0,4.0,81,0.00,,,0.00,Wunderground v.1.15,2013-02-27 18:45:00,
2013-02-27 10:55:00,49.2,43.3,30.30,NE,54,1.0,4.0,80,0.00,,,0.00,Wunderground v.1.15,2013-02-27 18:55:00,
2013-02-27 11:00:00,49.7,39.9,30.30,SSW,210,1.0,4.0,69,0.00,,,0.00,Wunderground v.1.15,2013-02-27 19:00:00,
2013-02-27 11:05:00,50.3,40.9,30.30,ESE,114,0.0,4.0,70,0.00,,,0.00,Wunderground v.1.15,2013-02-27 19:05:00,
2013-02-27 11:10:00,50.8,41.4,30.31,South,171,0.0,4.0,70,0.00,,,0.00,Wunderground v.1.15,2013-02-27 19:10:00,
2013-02-27 11:20:00,51.4,41.2,30.31,NW,310,0.0,4.0,68,0.00,,,0.00,Wunderground v.1.15,2013-02-27 19:20:00,
2013-02-27 11:25:00,51.7,43.3,30.31,NE,46,1.0,4.0,73,0.00,,,0.00,Wunderground v.1.15,2013-02-27 19:25:00,
2013-02-27 11:30:00,51.4,44.1,30.31,ENE,59,2.0,4.0,76,0.00,,,0.00,Wunderground v.1.15,2013-02-27 19:30:00,
2013-02-27 11:35:00,51.2,43.9,30.31,ENE,72,3.0,4.0,76,0.00,,,0.00,Wunderground v.1.15,2013-02-27 19:35:00,
2013-02-27 11:45:00,51.1,44.1,30.31,NNE,18,2.0,4.0,77,0.00,,,0.00,Wunderground v.1.15,2013-02-27 19:45:00,
2013-02-27 11:50:00,51.5,44.5,30.31,East,79,1.0,4.0,77,0.00,,,0.00,Wunderground v.1.15,2013-02-27 19:50:00,
2013-02-27 11:55:00,52.3,43.9,30.31,SSE,151,1.0,4.0,73,0.00,,,0.00,Wunderground v.1.15,2013-02-27 19:55:00,
2013-02-27 12:00:00,53.0,44.6,30.31,SSE,160,2.0,2.0,73,0.00,,,0.00,Wunderground v.1.15,2013-02-27 20:00:00,
2013-02-27 12:10:00,54.0,44.8,30.31,SSE,160,1.0,1.0,71,0.00,,,0.00,Wunderground v.1.15,2013-02-27 20:10:00,
2013-02-27 12:15:00,54.2,45.0,30.31,SE,143,1.0,1.0,71,0.00,,,0.00,Wunderground v.1.15,2013-02-27 20:15:00,
2013-02-27 12:20:00,54.5,45.3,30.31,ESE,111,1.0,1.0,71,0.00,,,0.00,Wunderground v.1.15,2013-02-27 20:20:00,
2013-02-27 12:25:00,54.7,45.5,30.31,SSE,168,2.0,2.0,71,0.00,,,0.00,Wunderground v.1.15,2013-02-27 20:25:00,
2013-02-27 12:35:00,55.0,45.8,30.30,ESE,114,1.0,3.0,71,0.00,,,0.00,Wunderground v.1.15,2013-02-27 20:35:00,
2013-02-27 12:40:00,55.0,45.4,30.30,ESE,118,1.0,1.0,70,0.00,,,0.00,Wunderground v.1.15,2013-02-27 20:40:00,
2013-02-27 12:45:00,55.5,45.9,30.30,ENE,77,1.0,1.0,70,0.00,,,0.00,Wunderground v.1.15,2013-02-27 20:45:00,
2013-02-27 12:55:00,56.2,45.8,30.30,East,87,2.0,2.0,68,0.00,,,0.00,Wunderground v.1.15,2013-02-27 20:55:00,
2013-02-27 13:00:00,56.3,45.9,30.30,ESE,113,2.0,2.0,68,0.00,,,0.00,Wunderground v.1.15,2013-02-27 21:00:00,
2013-02-27 13:05:00,56.3,45.5,30.29,SE,142,1.0,5.0,67,0.00,,,0.00,Wunderground v.1.15,2013-02-27 21:05:00,
2013-02-27 13:15:00,56.2,45.8,30.29,South,172,1.0,5.0,68,0.00,,,0.00,Wunderground v.1.15,2013-02-27 21:15:00,
2013-02-27 13:20:00,56.0,46.4,30.29,SSE,158,2.0,2.0,70,0.00,,,0.00,Wunderground v.1.15,2013-02-27 21:20:00,
2013-02-27 13:25:00,55.9,46.3,30.28,NE,41,2.0,5.0,70,0.00,,,0.00,Wunderground v.1.15,2013-02-27 21:25:00,
2013-02-27 13:30:00,55.9,46.3,30.28,South,177,2.0,5.0,70,0.00,,,0.00,Wunderground v.1.15,2013-02-27 21:30:00,
2013-02-27 13:40:00,56.0,46.7,30.28,East,87,1.0,5.0,71,0.00,,,0.00,Wunderground v.1.15,2013-02-27 21:40:00,
2013-02-27 13:45:00,55.9,46.6,30.28,ESE,112,1.0,5.0,71,0.00,,,0.00,Wunderground v.1.15,2013-02-27 21:45:00,
2013-02-27 13:50:00,55.9,47.0,30.28,SSE,158,1.0,1.0,72,0.00,,,0.00,Wunderground v.1.15,2013-02-27 21:50:00,
2013-02-27 14:00:00,55.7,46.8,30.28,WNW,283,1.0,5.0,72,0.00,,,0.00,Wunderground v.1.15,2013-02-27 22:00:00,
2013-02-27 14:05:00,55.7,47.5,30.28,WNW,285,0.0,5.0,74,0.00,,,0.00,Wunderground v.1.15,2013-02-27 22:05:00,
2013-02-27 14:10:00,55.6,47.1,30.28,SE,133,0.0,5.0,73,0.00,,,0.00,Wunderground v.1.15,2013-02-27 22:10:00,
2013-02-27 14:20:00,55.6,47.8,30.28,NW,325,0.0,5.0,75,0.00,,,0.00,Wunderground v.1.15,2013-02-27 22:20:00,
2013-02-27 14:25:00,55.5,48.1,30.28,SE,137,0.0,5.0,76,0.00,,,0.00,Wunderground v.1.15,2013-02-27 22:25:00,
2013-02-27 14:30:00,55.3,47.9,30.29,East,79,1.0,5.0,76,0.00,,,0.00,Wunderground v.1.15,2013-02-27 22:30:00,
2013-02-27 14:40:00,54.9,47.8,30.28,WSW,251,1.0,5.0,77,0.00,,,0.00,Wunderground v.1.15,2013-02-27 22:40:00,
2013-02-27 14:45:00,54.8,47.7,30.28,NW,305,1.0,5.0,77,0.00,,,0.00,Wunderground v.1.15,2013-02-27 22:45:00,
2013-02-27 14:50:00,54.8,48.1,30.28,SSE,160,0.0,5.0,78,0.00,,,0.00,Wunderground v.1.15,2013-02-27 22:50:00,
2013-02-27 14:55:00,54.8,48.4,30.28,South,176,0.0,5.0,79,0.00,,,0.00,Wunderground v.1.15,2013-02-27 22:55:00,
2013-02-27 15:05:00,54.7,48.3,30.28,WNW,302,1.0,5.0,79,0.00,,,0.00,Wunderground v.1.15,2013-02-27 23:05:00,
2013-02-27 15:10:00,54.6,48.2,30.28,South,184,1.0,1.0,79,0.00,,,0.00,Wunderground v.1.15,2013-02-27 23:10:00,
2013-02-27 15:20:00,54.3,48.6,30.28,SSE,149,0.0,5.0,81,0.00,,,0.00,Wunderground v.1.15,2013-02-27 23:20:00,
2013-02-27 15:25:00,54.2,48.8,30.28,East,95,0.0,5.0,82,0.00,,,0.00,Wunderground v.1.15,2013-02-27 23:25:00,
2013-02-27 15:30:00,54.0,48.6,30.27,SE,130,0.0,5.0,82,0.00,,,0.00,Wunderground v.1.15,2013-02-27 23:30:00,
2013-02-27 15:35:00,53.9,48.9,30.27,SE,141,0.0,5.0,83,0.00,,,0.00,Wunderground v.1.15,2013-02-27 23:35:00,
2013-02-27 15:45:00,53.7,49.0,30.27,North,354,0.0,5.0,84,0.00,,,0.00,Wunderground v.1.15,2013-02-27 23:45:00,
2013-02-27 15:50:00,53.5,49.1,30.27,NW,308,0.0,5.0,85,0.00,,,0.00,Wunderground v.1.15,2013-02-27 23:50:00,
2013-02-27 15:55:00,53.4,49.3,30.28,NW,308,0.0,5.0,86,0.00,,,0.00,Wunderground v.1.15,2013-02-27 23:55:00,
2013-02-27 16:05:00,53.0,49.5,30.27,NW,308,0.0,5.0,88,0.00,,,0.00,Wunderground v.1.15,2013-02-28 00:05:00,
2013-02-27 16:10:00,52.8,49.6,30.28,NW,308,0.0,5.0,89,0.00,,,0.01,Wunderground v.1.15,2013-02-28 00:10:00,
2013-02-27 16:15:00,52.6,49.8,30.27,NW,308,0.0,5.0,90,0.00,,,0.01,Wunderground v.1.15,2013-02-28 00:15:00,
2013-02-27 16:25:00,52.3,49.8,30.27,NW,308,0.0,5.0,91,0.04,,,0.02,Wunderground v.1.15,2013-02-28 00:25:00,
2013-02-27 16:30:00,52.2,49.9,30.27,NW,308,0.0,5.0,92,0.04,,,0.02,Wunderground v.1.15,2013-02-28 00:30:00,
2013-02-27 16:35:00,52.0,49.7,30.27,NW,308,0.0,5.0,92,0.07,,,0.03,Wunderground v.1.15,2013-02-28 00:35:00,
2013-02-27 16:45:00,51.6,49.6,30.27,NW,308,0.0,5.0,93,0.11,,,0.05,Wunderground v.1.15,2013-02-28 00:45:00,
2013-02-27 16:50:00,51.4,49.7,30.27,NW,308,0.0,5.0,94,0.13,,,0.06,Wunderground v.1.15,2013-02-28 00:50:00,
2013-02-27 16:55:00,51.2,49.5,30.27,SE,134,0.0,5.0,94,0.06,,,0.06,Wunderground v.1.15,2013-02-28 00:55:00,
2013-02-27 17:05:00,50.9,49.5,30.27,SE,143,0.0,5.0,95,0.07,,,0.08,Wunderground v.1.15,2013-02-28 01:05:00,
2013-02-27 17:10:00,50.6,49.2,30.27,SE,141,0.0,5.0,95,0.07,,,0.08,Wunderground v.1.15,2013-02-28 01:10:00,
2013-02-27 17:15:00,50.5,49.1,30.27,SE,146,1.0,5.0,95,0.06,,,0.08,Wunderground v.1.15,2013-02-28 01:15:00,
2013-02-27 17:25:00,50.2,48.8,30.27,ESE,105,1.0,5.0,95,0.04,,,0.09,Wunderground v.1.15,2013-02-28 01:25:00,
2013-02-27 17:30:00,50.1,48.7,30.27,ESE,112,1.0,1.0,95,0.04,,,0.09,Wunderground v.1.15,2013-02-28 01:30:00,
2013-02-27 17:35:00,50.0,48.9,30.26,SE,146,0.0,5.0,96,0.04,,,0.09,Wunderground v.1.15,2013-02-28 01:35:00,
2013-02-27 17:45:00,49.9,48.8,30.26,SE,146,0.0,5.0,96,0.00,,,0.10,Wunderground v.1.15,2013-02-28 01:45:00,
2013-02-27 17:50:00,49.8,48.7,30.26,SSE,149,0.0,5.0,96,0.00,,,0.10,Wunderground v.1.15,2013-02-28 01:50:00,
2013-02-27 17:55:00,49.8,48.7,30.26,SSE,149,0.0,5.0,96,0.00,,,0.10,Wunderground v.1.15,2013-02-28 01:55:00,
2013-02-27 18:00:00,49.7,48.6,30.26,SSE,150,0.0,5.0,96,0.00,,,0.10,Wunderground v.1.15,2013-02-28 02:00:00,
2013-02-27 18:10:00,49.6,48.5,30.26,South,174,1.0,5.0,96,0.00,,,0.11,Wunderground v.1.15,2013-02-28 02:10:00,
2013-02-27 18:15:00,49.6,48.8,30.26,South,183,1.0,5.0,97,0.00,,,0.11,Wunderground v.1.15,2013-02-28 02:15:00,
2013-02-27 18:20:00,49.6,48.8,30.26,SSE,150,1.0,5.0,97,0.00,,,0.11,Wunderground v.1.15,2013-02-28 02:20:00,
2013-02-27 18:25:00,49.6,48.5,30.25,SW,216,1.0,5.0,96,0.00,,,0.12,Wunderground v.1.15,2013-02-28 02:25:00,
2013-02-27 18:35:00,49.6,48.5,30.26,South,182,1.0,5.0,96,0.00,,,0.12,Wunderground v.1.15,2013-02-28 02:35:00,
2013-02-27 18:40:00,49.5,48.4,30.26,SW,218,1.0,5.0,96,0.00,,,0.12,Wunderground v.1.15,2013-02-28 02:40:00,
2013-02-27 18:50:00,49.5,48.4,30.26,SSE,154,1.0,5.0,96,0.00,,,0.12,Wunderground v.1.15,2013-02-28 02:50:00,
2013-02-27 18:55:00,49.4,48.3,30.26,SSE,152,1.0,5.0,96,0.00,,,0.12,Wunderground v.1.15,2013-02-28 02:55:00,
2013-02-27 19:00:00,49.4,48.6,30.25,SSE,151,1.0,1.0,97,0.00,,,0.12,Wunderground v.1.15,2013-02-28 03:00:00,
2013-02-27 19:05:00,49.4,48.3,30.26,SSE,162,1.0,5.0,96,0.00,,,0.12,Wunderground v.1.15,2013-02-28 03:05:00,
2013-02-27 19:15:00,49.3,48.2,30.25,SSE,158,1.0,5.0,96,0.00,,,0.12,Wunderground v.1.15,2013-02-28 03:15:00,
2013-02-27 19:20:00,49.2,48.4,30.25,SSE,158,1.0,5.0,97,0.00,,,0.12,Wunderground v.1.15,2013-02-28 03:20:00,
2013-02-27 19:30:00,49.3,48.5,30.25,SSE,151,1.0,5.0,97,0.00,,,0.12,Wunderground v.1.15,2013-02-28 03:30:00,
2013-02-27 19:35:00,49.2,48.4,30.25,SE,146,1.0,5.0,97,0.00,,,0.12,Wunderground v.1.15,2013-02-28 03:35:00,
2013-02-27 19:40:00,49.2,48.4,30.25,South,191,0.0,5.0,97,0.00,,,0.12,Wunderground v.1.15,2013-02-28 03:40:00,
2013-02-27 19:45:00,49.2,48.4,30.26,South,173,1.0,5.0,97,0.00,,,0.12,Wunderground v.1.15,2013-02-28 03:45:00,
2013-02-27 19:55:00,49.2,48.4,30.25,South,185,1.0,5.0,97,0.00,,,0.12,Wunderground v.1.15,2013-02-28 03:55:00,
2013-02-27 20:00:00,49.1,48.3,30.26,SSE,160,1.0,5.0,97,0.00,,,0.12,Wunderground v.1.15,2013-02-28 04:00:00,
2013-02-27 20:05:00,49.1,48.3,30.26,SSE,151,1.0,5.0,97,0.00,,,0.12,Wunderground v.1.15,2013-02-28 04:05:00,
2013-02-27 20:15:00,48.9,48.1,30.25,SSE,153,0.0,5.0,97,0.00,,,0.12,Wunderground v.1.15,2013-02-28 04:15:00,
2013-02-27 20:20:00,48.9,48.1,30.26,South,171,0.0,5.0,97,0.00,,,0.12,Wunderground v.1.15,2013-02-28 04:20:00,
2013-02-27 20:25:00,48.9,48.1,30.26,South,170,0.0,5.0,97,0.00,,,0.12,Wunderground v.1.15,2013-02-28 04:25:00,
2013-02-27 20:30:00,48.8,48.0,30.26,South,171,0.0,5.0,97,0.00,,,0.12,Wunderground v.1.15,2013-02-28 04:30:00,
2013-02-27 20:40:00,48.8,48.0,30.26,SSE,168,0.0,5.0,97,0.00,,,0.12,Wunderground v.1.15,2013-02-28 04:40:00,
2013-02-27 20:45:00,48.8,48.0,30.26,SSW,196,0.0,5.0,97,0.00,,,0.12,Wunderground v.1.15,2013-02-28 04:45:00,
2013-02-27 20:50:00,48.8,48.0,30.25,SSW,194,0.0,5.0,97,0.00,,,0.12,Wunderground v.1.15,2013-02-28 04:50:00,
2013-02-27 21:00:00,48.8,48.0,30.26,SSW,195,0.0,5.0,97,0.00,,,0.12,Wunderground v.1.15,2013-02-28 05:00:00,
2013-02-27 21:05:00,48.8,48.0,30.26,South,169,0.0,5.0,97,0.00,,,0.12,Wunderground v.1.15,2013-02-28 05:05:00,
2013-02-27 21:10:00,48.8,48.0,30.26,South,169,0.0,5.0,97,0.00,,,0.12,Wunderground v.1.15,2013-02-28 05:10:00,
2013-02-27 21:20:00,48.8,48.0,30.26,South,169,0.0,5.0,97,0.00,,,0.12,Wunderground v.1.15,2013-02-28 05:20:00,
2013-02-27 21:25:00,48.8,48.0,30.25,South,169,0.0,5.0,97,0.00,,,0.12,Wunderground v.1.15,2013-02-28 05:25:00,
2013-02-27 21:30:00,48.8,48.0,30.25,SSE,159,0.0,5.0,97,0.00,,,0.12,Wunderground v.1.15,2013-02-28 05:30:00,
2013-02-27 21:40:00,48.8,48.0,30.26,SSW,197,0.0,5.0,97,0.00,,,0.12,Wunderground v.1.15,2013-02-28 05:40:00,
2013-02-27 21:45:00,48.7,47.9,30.26,South,172,0.0,5.0,97,0.00,,,0.12,Wunderground v.1.15,2013-02-28 05:45:00,
2013-02-27 21:50:00,48.8,48.0,30.26,SSW,199,1.0,5.0,97,0.00,,,0.12,Wunderground v.1.15,2013-02-28 05:50:00,
2013-02-27 22:00:00,48.9,48.1,30.26,SSE,163,0.0,5.0,97,0.00,,,0.12,Wunderground v.1.15,2013-02-28 06:00:00,
2013-02-27 22:05:00,48.9,48.1,30.26,SSE,149,1.0,5.0,97,0.00,,,0.12,Wunderground v.1.15,2013-02-28 06:05:00,
2013-02-27 22:10:00,48.9,48.1,30.26,SSW,202,1.0,5.0,97,0.00,,,0.12,Wunderground v.1.15,2013-02-28 06:10:00,
2013-02-27 22:20:00,49.0,47.9,30.26,SSE,159,0.0,5.0,96,0.00,,,0.12,Wunderground v.1.15,2013-02-28 06:20:00,
2013-02-27 22:25:00,49.0,47.9,30.26,SSE,160,0.0,5.0,96,0.00,,,0.12,Wunderground v.1.15,2013-02-28 06:25:00,
2013-02-27 22:30:00,48.9,48.1,30.26,SSE,160,0.0,5.0,97,0.00,,,0.12,Wunderground v.1.15,2013-02-28 06:30:00,
2013-02-27 22:40:00,48.8,48.0,30.26,SSE,154,0.0,5.0,97,0.00,,,0.12,Wunderground v.1.15,2013-02-28 06:40:00,
2013-02-27 22:45:00,48.8,48.0,30.26,SSE,155,0.0,5.0,97,0.00,,,0.12,Wunderground v.1.15,2013-02-28 06:45:00,
2013-02-27 22:50:00,48.8,48.0,30.26,SSE,155,0.0,5.0,97,0.00,,,0.12,Wunderground v.1.15,2013-02-28 06:50:00,
2013-02-27 22:55:00,48.8,48.0,30.26,SSE,155,0.0,5.0,97,0.00,,,0.12,Wunderground v.1.15,2013-02-28 06:55:00,
2013-02-27 23:05:00,48.9,48.1,30.26,SSW,198,0.0,5.0,97,0.00,,,0.12,Wunderground v.1.15,2013-02-28 07:05:00,
2013-02-27 23:10:00,48.9,48.1,30.26,SSW,198,0.0,5.0,97,0.00,,,0.12,Wunderground v.1.15,2013-02-28 07:10:00,
2013-02-27 23:15:00,48.9,48.1,30.26,SSW,198,0.0,5.0,97,0.00,,,0.12,Wunderground v.1.15,2013-02-28 07:15:00,